[[{"header":{"parameterUnit":"m.s-1","parameterCategory":1,"la1":30.2991,"la2":30.254,"lo1":-89.0895,"lo2":-89.0444,"dy":0.0017,"dx":0.0017,"nx":28,"ny":28,"refTime":"2025-07-16T09:00:00:Z","depth":0,"parameterNumber":2,"parameterNumberName":"U-component_of_WINDS"},"data":[0,0,0,0,0,0,0,0,0,0,0,0,0,0,0,0,0,0,0,0,0,0,0,0,0,0,0,0,0,0,0,0,0,0,0,0,0,0,0,0,0,0,0,0,0,0,0,0,0,0,0,0,0,0,0,0,0,0,1.8699,1.8699,0,1.8705,1.8705,1.8705,1.8561,1.8557,1.8553,1.855,1.8566,1.857,1.8574,0,0,0,0,0,0,0,0,0,0,0,0,0,1.8574,1.8577,1.8699,1.8699,1.8699,1.8705,1.8705,1.8705,1.8562,1.8557,1.8552,1.8548,1.8565,1.857,1.8575,0,0,0,0,0,0,0,0,0,0,0,0,0,1.861,1.8578,1.8699,1.8628,1.8622,1.8705,1.8705,1.8705,1.8563,1.8557,1.8551,1.8546,1.8563,1.8569,1.8575,1.873,0,0,1.8594,1.8597,0,0,0,0,0,0,0,0,1.8608,1.8614,1.8639,1.8633,1.8626,1.8626,1.8667,1.8714,1.8564,1.8586,1.8549,1.8543,1.8592,1.8595,1.8609,1.8731,1.8731,1.8594,1.8598,1.8601,1.8602,0,0,0,0,0,0,0,1.8606,1.8613,1.8702,1.8639,1.8632,1.86,1.8598,1.8675,1.8622,1.8583,1.8573,1.8575,1.8587,1.8604,1.8609,1.8732,1.8594,1.86,1.8603,1.8606,1.8983,1.8989,0,0,0,0,0,0,1.8611,1.8612,1.8702,1.8702,1.8602,1.8607,1.8605,1.8632,1.862,1.8613,1.858,1.8568,1.8596,1.8602,1.8609,1.879,1.8601,1.8606,1.861,1.8976,1.8984,1.8991,0,0,0,0,0,0,1.8609,1.8621,1.8701,1.8654,1.8662,1.8615,1.8647,1.8636,1.8652,1.8618,1.8608,1.8606,1.8592,1.86,1.8701,1.8789,1.8609,1.8615,1.8969,1.8979,1.8988,1.9154,0,0,0,0,0,0,1.8606,1.8621,1.8676,1.8656,1.8665,1.8791,1.8652,1.864,1.8661,1.8646,1.864,1.8633,1.8588,1.8692,1.8707,1.8794,1.862,1.8961,1.8973,1.8985,1.914,1.9168,1.9191,0,0,0,0,0,1.8602,1.8725,1.868,1.8692,1.8733,1.8796,1.8801,1.8743,1.8669,1.8726,1.8705,1.8633,1.8776,1.8704,1.8719,1.8809,1.8955,1.897,1.8984,1.9129,1.9163,1.9191,0,0,0,0,0,0,1.876,1.8721,1.8671,1.879,1.8797,1.8771,1.8842,1.8781,1.8812,1.8797,1.8727,1.8727,1.884,1.8834,1.8754,1.8959,1.8853,1.8871,1.8958,1.899,1.9015,1.9015,1.8625,0,0,0,0,0,1.8808,1.8858,1.8823,1.8932,1.8938,1.889,1.8915,1.887,1.8875,1.8879,1.8864,1.8876,1.8923,1.8956,1.8998,1.9139,1.9137,1.9209,1.9234,1.9255,1.9272,1.9348,1.938,1.9038,1.9038,1.9038,0,0,1.8909,1.8894,1.8931,1.8963,1.8963,1.9021,1.8893,1.8959,1.9002,1.889,1.8983,1.8973,1.8982,1.9104,1.9157,1.9103,1.9366,1.9273,1.9291,1.9296,1.9366,1.9399,1.9428,1.9048,1.9046,1.9044,0,0,1.9122,1.9115,1.9205,1.9207,1.9208,1.9175,1.9197,1.9181,1.9169,1.9261,1.9178,1.923,1.9313,1.9323,1.9339,1.9557,1.9494,1.9573,1.9707,1.9782,1.9809,1.9833,1.9913,1.9942,1.959,1.959,1.9591,0,1.9248,1.9327,1.926,1.9331,1.9349,1.9247,1.934,1.9347,1.9363,1.938,1.9318,1.9421,1.9419,1.9542,1.9596,1.9612,1.9637,1.9574,1.981,1.9833,1.9855,1.993,1.996,1.96,1.9599,1.9598,1.9597,0,1.9484,1.9541,1.9614,1.9629,1.9655,1.9738,1.9686,1.9722,1.9675,1.965,1.9747,1.9741,1.978,1.9806,1.9762,1.9925,1.9891,1.9822,1.9714,1.9898,1.9968,1.9996,1.9614,1.961,1.9608,1.9605,0,0,1.9796,1.9772,1.98,1.9806,1.98,1.9845,1.9924,1.9959,1.9992,2.0008,2.0074,2.0147,2.0082,2.0101,2.0057,2.0123,2.0299,2.0045,2.0044,2.0094,2.048,2.0533,2.0567,2.0256,2.0261,2.0265,2.0479,0,2.0004,2.0133,2.0076,2.0213,2.0267,2.0171,2.0241,2.0247,2.0226,2.0271,2.0249,2.0303,2.0212,2.0223,2.0283,2.0264,2.0376,2.0248,2.0321,2.0324,2.0322,2.0603,2.066,2.0862,2.0506,2.0511,2.0514,0,2.0263,2.0286,2.0428,2.0413,2.0434,2.0497,2.0525,2.0568,2.0575,2.0555,2.0576,2.0518,2.0599,2.0491,2.0602,2.0517,2.0543,2.0539,2.0545,2.0551,2.0431,2.0618,2.0925,2.0956,2.0556,2.0553,2.0549,0,2.0478,2.0545,2.0639,2.0647,2.0632,2.0679,2.0676,2.0675,2.0701,2.0728,2.0744,2.0781,2.0802,2.0833,2.0789,2.0714,2.0908,2.0795,2.0897,2.0898,2.0943,2.0941,2.1259,2.0958,2.0958,2.0957,2.0957,0,2.0717,2.0808,2.0735,2.0794,2.0894,2.0828,2.0931,2.0918,2.0919,2.0975,2.0896,2.0952,2.0888,2.0939,2.0905,2.1003,2.1013,2.1002,2.0993,2.101,2.1012,2.1027,2.1013,2.0965,2.0963,2.0962,2.096,0,2.0974,2.0929,2.1025,2.1003,2.0999,2.1075,2.1057,2.1112,2.1085,2.1158,2.1172,2.1132,2.1188,2.1145,2.1201,2.1178,2.1309,2.1279,2.1306,2.1298,2.1402,2.1394,2.1743,2.1787,2.1457,2.146,2.1463,0,2.113,2.1197,2.1182,2.1212,2.1213,2.1263,2.1288,2.1228,2.1258,2.1271,2.1325,2.1373,2.1408,2.1502,2.1481,2.1523,2.1495,2.1614,2.1501,2.1517,2.1498,2.1495,2.1503,2.1638,2.1642,2.1645,2.1647,0,2.1411,2.1385,2.1423,2.1454,2.1485,2.1507,2.1523,2.1554,2.1492,2.1531,2.1584,2.1612,2.1667,2.1718,2.1753,2.1753,2.1692,2.1683,2.1709,2.1728,2.1741,2.1737,2.137,2.1675,2.1673,2.1671,2.1669,2.1668,2.1623,2.1679,2.1677,2.1722,2.1727,2.1744,2.1795,2.1774,2.1817,2.1855,2.1818,2.1885,2.1891,2.1931,2.1939,2.1993,2.1944,2.1981,2.1991,2.2001,2.2017,2.1732,2.1999,2.1998,2.1997,2.1997,2.1996,0,2.1901,2.1895,2.1937,2.1961,2.1998,2.1933,2.1948,2.1984,2.2042,2.2052,2.2087,2.2151,2.22,2.2182,2.2225,2.2272,2.2245,2.2286,2.2282,2.2284,2.2057,2.2031,2.2307,2.2306,2.2306,2.2306,2.2306,2.2306,2.205,2.2142,2.2117,2.2212,2.2206,2.2268,2.2282,2.2299,2.2306,2.238,2.2419,2.2405,2.2406,2.2448,2.2491,2.2485,2.2506,2.2557,2.2541,2.233,2.2299,2.227,2.2245,2.2562,2.2562,2.2763,2.2765,2.2766]},{"header":{"parameterUnit":"m.s-1","parameterCategory":1,"la1":30.2991,"la2":30.254,"lo1":-89.0895,"lo2":-89.0444,"dy":0.0017,"dx":0.0017,"nx":28,"ny":28,"refTime":"2025-07-16T09:00:00:Z","depth":0,"parameterNumber":3,"parameterNumberName":"V-component_of_WINDS"},"data":[0,0,0,0,0,0,0,0,0,0,0,0,0,0,0,0,0,0,0,0,0,0,0,0,0,0,0,0,0,0,0,0,0,0,0,0,0,0,0,0,0,0,0,0,0,0,0,0,0,0,0,0,0,0,0,0,0,0,-0.0826,-0.0826,0,-0.0814,-0.0814,-0.0814,-0.0853,-0.0854,-0.0855,-0.0856,-0.0841,-0.0839,-0.0838,0,0,0,0,0,0,0,0,0,0,0,0,0,-0.0883,-0.0882,-0.0826,-0.0826,-0.0826,-0.0814,-0.0814,-0.0814,-0.0852,-0.0854,-0.0855,-0.0857,-0.0841,-0.084,-0.0838,0,0,0,0,0,0,0,0,0,0,0,0,0,-0.0863,-0.0882,-0.0826,-0.0844,-0.0846,-0.0814,-0.0814,-0.0813,-0.0852,-0.0854,-0.0856,-0.0857,-0.0842,-0.084,-0.0838,-0.0788,0,0,-0.0831,-0.083,0,0,0,0,0,0,0,0,-0.0864,-0.0861,-0.0842,-0.0843,-0.0844,-0.0837,-0.0828,-0.0805,-0.0852,-0.0849,-0.0856,-0.0858,-0.0838,-0.0836,-0.083,-0.0787,-0.0786,-0.083,-0.0829,-0.0828,-0.0827,0,0,0,0,0,0,0,-0.0866,-0.0862,-0.0821,-0.0841,-0.0843,-0.0852,-0.0852,-0.0824,-0.0834,-0.085,-0.0853,-0.0851,-0.0839,-0.0832,-0.083,-0.0786,-0.083,-0.0828,-0.0827,-0.0826,-0.0703,-0.0702,0,0,0,0,0,0,-0.0865,-0.0863,-0.0822,-0.0821,-0.0859,-0.085,-0.0849,-0.0837,-0.0834,-0.0835,-0.0849,-0.0853,-0.0835,-0.0832,-0.0829,-0.0772,-0.0828,-0.0826,-0.0825,-0.0705,-0.0703,-0.0701,0,0,0,0,0,0,-0.0866,-0.0861,-0.0822,-0.0843,-0.0839,-0.0847,-0.0834,-0.0836,-0.0829,-0.0834,-0.0836,-0.084,-0.0836,-0.0832,-0.0798,-0.0772,-0.0825,-0.0823,-0.0707,-0.0705,-0.0702,-0.0655,0,0,0,0,0,0,-0.0868,-0.0861,-0.0842,-0.0842,-0.0837,-0.0791,-0.0832,-0.0835,-0.0825,-0.083,-0.0826,-0.0827,-0.0837,-0.0801,-0.0796,-0.0769,-0.0821,-0.071,-0.0706,-0.0703,-0.0659,-0.0651,-0.0644,0,0,0,0,0,-0.0869,-0.0829,-0.0841,-0.0836,-0.0814,-0.079,-0.0787,-0.0801,-0.0823,-0.0804,-0.0807,-0.0827,-0.0776,-0.0798,-0.0792,-0.0764,-0.0712,-0.0707,-0.0703,-0.0662,-0.0653,-0.0644,0,0,0,0,0,0,-0.0824,-0.0829,-0.0843,-0.0801,-0.0795,-0.0797,-0.0773,-0.079,-0.0776,-0.0781,-0.0798,-0.0797,-0.076,-0.0758,-0.0783,-0.0717,-0.0747,-0.0742,-0.0718,-0.0709,-0.0702,-0.0703,-0.0819,0,0,0,0,0,-0.0809,-0.079,-0.0795,-0.0757,-0.0754,-0.0764,-0.0754,-0.0765,-0.0759,-0.0757,-0.0758,-0.0751,-0.0733,-0.0721,-0.0705,-0.0659,-0.066,-0.0638,-0.063,-0.0624,-0.0619,-0.0596,-0.0587,-0.0687,-0.0687,-0.0687,0,0,-0.0778,-0.0779,-0.0765,-0.0748,-0.0745,-0.0725,-0.0761,-0.0738,-0.0723,-0.0753,-0.0721,-0.0721,-0.0715,-0.0675,-0.0658,-0.0673,-0.0591,-0.0619,-0.0614,-0.0612,-0.0591,-0.0581,-0.0573,-0.0684,-0.0685,-0.0685,0,0,-0.0711,-0.071,-0.0679,-0.0675,-0.0671,-0.0678,-0.0671,-0.067,-0.0672,-0.0641,-0.0664,-0.0646,-0.0615,-0.061,-0.0603,-0.0537,-0.0555,-0.0531,-0.0492,-0.0469,-0.0461,-0.0455,-0.0432,-0.0423,-0.0526,-0.0526,-0.0526,0,-0.0673,-0.0644,-0.0661,-0.0636,-0.0628,-0.0657,-0.0626,-0.0621,-0.0611,-0.0605,-0.0623,-0.0586,-0.0583,-0.0544,-0.0528,-0.0521,-0.0514,-0.0531,-0.0461,-0.0455,-0.0448,-0.0427,-0.0418,-0.0523,-0.0523,-0.0524,-0.0524,0,-0.0597,-0.0577,-0.0552,-0.0544,-0.0533,-0.0505,-0.0518,-0.0506,-0.0518,-0.0524,-0.0492,-0.0491,-0.0476,-0.0467,-0.0478,-0.0429,-0.0439,-0.0459,-0.049,-0.0436,-0.0416,-0.0407,-0.0519,-0.052,-0.0521,-0.0522,0,0,-0.05,-0.0503,-0.0493,-0.0491,-0.0488,-0.0472,-0.0446,-0.0433,-0.0422,-0.0415,-0.0393,-0.0368,-0.0387,-0.0379,-0.0391,-0.0371,-0.032,-0.0393,-0.0394,-0.038,-0.0266,-0.0251,-0.0241,-0.0332,-0.033,-0.0329,-0.0267,0,-0.0435,-0.0391,-0.0407,-0.0362,-0.0344,-0.0371,-0.0349,-0.0345,-0.035,-0.0335,-0.034,-0.0322,-0.0348,-0.0344,-0.0325,-0.033,-0.0297,-0.0334,-0.0312,-0.0311,-0.0313,-0.0231,-0.0215,-0.0156,-0.0259,-0.0258,-0.0257,0,-0.0353,-0.0344,-0.0298,-0.0301,-0.0293,-0.0273,-0.0263,-0.0248,-0.0244,-0.025,-0.0242,-0.0258,-0.0233,-0.0265,-0.0231,-0.0256,-0.0248,-0.0249,-0.0247,-0.0245,-0.0281,-0.0227,-0.0138,-0.0129,-0.0244,-0.0245,-0.0246,0,-0.0287,-0.0263,-0.0233,-0.023,-0.0232,-0.0217,-0.0217,-0.0216,-0.0207,-0.0198,-0.0193,-0.0181,-0.0174,-0.0164,-0.0176,-0.0198,-0.0141,-0.0173,-0.0144,-0.0144,-0.0131,-0.0131,-0.0039,-0.0125,-0.0125,-0.0125,-0.0125,0,-0.0213,-0.0184,-0.0204,-0.0186,-0.0154,-0.0173,-0.0141,-0.0144,-0.0143,-0.0125,-0.0148,-0.0131,-0.0148,-0.0133,-0.0143,-0.0114,-0.011,-0.0114,-0.0116,-0.0112,-0.0111,-0.0106,-0.0111,-0.0123,-0.0124,-0.0124,-0.0124,0,-0.0134,-0.0146,-0.0116,-0.0121,-0.0122,-0.0099,-0.0103,-0.0086,-0.0094,-0.0071,-0.0067,-0.0078,-0.0061,-0.0073,-0.0056,-0.0063,-0.0025,-0.0033,-0.0026,-0.0029,0.0001,-0.0002,0.0099,0.0111,0.0018,0.0019,0.002,0,-0.0086,-0.0064,-0.0068,-0.0059,-0.0058,-0.0042,-0.0034,-0.0052,-0.0043,-0.0038,-0.0022,-0.0008,0.0003,0.0031,0.0025,0.0037,0.0029,0.0063,0.003,0.0034,0.0028,0.0027,0.0029,0.007,0.0071,0.0072,0.0073,0,0.0001,-0.0007,0.0005,0.0014,0.0024,0.0031,0.0036,0.0045,0.0027,0.0038,0.0054,0.0062,0.0079,0.0093,0.0103,0.0103,0.0085,0.0083,0.009,0.0095,0.0098,0.0096,-0.0008,0.0081,0.008,0.0079,0.0079,0.0079,0.0066,0.0083,0.0082,0.0095,0.0097,0.0102,0.0117,0.011,0.0123,0.0134,0.0123,0.0142,0.0143,0.0154,0.0157,0.0171,0.0157,0.0168,0.0171,0.0173,0.0177,0.0096,0.0173,0.0173,0.0173,0.0172,0.0172,0,0.0151,0.0148,0.0161,0.0167,0.0178,0.0158,0.0162,0.0172,0.0189,0.0191,0.0201,0.0219,0.0232,0.0227,0.0238,0.0251,0.0243,0.0255,0.0253,0.0253,0.019,0.0182,0.0261,0.0261,0.0261,0.0261,0.0261,0.0261,0.0196,0.0223,0.0215,0.0242,0.024,0.0257,0.0261,0.0265,0.0267,0.0287,0.0297,0.0293,0.0292,0.0303,0.0314,0.0312,0.0317,0.0332,0.0327,0.0267,0.0258,0.025,0.0242,0.0333,0.0333,0.0389,0.039,0.039]}]]